Regional Weather Roundup
Issued by NWS

Home | Current Version | Previous Version | Graphics & Text | Print | Product List | Glossary Off
Versions: 1 2 3 4 5 6 7 8 9 10 11 12 13 14 15 16 17 18 19 20 21 22 23 24 25 26 27 28 29 30 31 32 33 34 35 36 37 38 39 40 41 42 43 44 45 46 47 48 49 50

000
ASUS43 KMKX 280021
RWRWI

WISCONSIN REGIONAL WEATHER ROUNDUP
NATIONAL WEATHER SERVICE MILWAUKEE/SULLIVAN WI
700 PM CDT TUE JUN 27 2017

NOTE: "FAIR" INDICATES FEW OR NO CLOUDS BELOW 12,000 FEET WITH NO
SIGNIFICANT WEATHER AND/OR OBSTRUCTIONS TO VISIBILITY.

WIZ001-002-006>008-014>016-023>028-280100-
NORTHWEST WISCONSIN

CITY           SKY/WX    TMP DP  RH WIND       PRES   REMARKS
SUPERIOR ARPT  NOT AVBL
ASHLAND        SUNNY     70  50  49 SW9       29.86F
6HR MIN TEMP:  70; 6HR MAX TEMP:  75;

HAYWARD        SUNNY     72  45  37 SW14      29.88F
6HR MIN TEMP:  70; 6HR MAX TEMP:  73;

SIREN          SUNNY     73  40  29 S16G22    29.87S
6HR MIN TEMP:  72; 6HR MAX TEMP:  75;

CUMBERLAND     SUNNY     70  43  37 S10G20    29.89F
RICE LAKE      SUNNY     73  44  34 S12       29.91S
6HR MIN TEMP:  70; 6HR MAX TEMP:  74;

CHETEK         SUNNY     72  47  41 S8G17     29.90F
LADYSMITH      CLOUDY    72  46  40 S10       29.92F
6HR MIN TEMP:  71; 6HR MAX TEMP:  74;

EAU CLAIRE     SUNNY     73  44  35 S13       29.90F
6HR MIN TEMP:  72; 6HR MAX TEMP:  75;

MENOMONIE      SUNNY     73  44  35 SE10      29.90F
NEW RICHMOND   SUNNY     73  40  30 S12G21    29.87F
6HR MIN TEMP:  71; 6HR MAX TEMP:  74;

OSCEOLA        SUNNY     74  42  31 S12       29.89F
6HR MIN TEMP:  73; 6HR MAX TEMP:  76;

$$

WIZ003>005-009-010-017-018-280100-
NORTH CENTRAL WISCONSIN

CITY           SKY/WX    TMP DP  RH WIND       PRES   REMARKS
MANITOWISH WTR SUNNY     69  47  44 SW7       29.91F
6HR MIN TEMP:  67; 6HR MAX TEMP:  72;

ARBOR VITAE    SUNNY     72  48  42 SW12      29.92F
6HR MIN TEMP:  69; 6HR MAX TEMP:  73;

WOODRUFF       SUNNY     72  48  42 SW12      29.92F
6HR MIN TEMP:  69; 6HR MAX TEMP:  73;

RHINELANDER    SUNNY     69  48  47 SW12G20   29.94F
6HR MIN TEMP:  67; 6HR MAX TEMP:  73;

EAGLE RIVER    SUNNY     69  43  38 SW9       29.93S
6HR MIN TEMP:  67; 6HR MAX TEMP:  72;

LAND O LAKES   SUNNY     71  42  36 SW8G17    29.94S
6HR MIN TEMP:  68; 6HR MAX TEMP:  74;

PHILLIPS       SUNNY     68  48  48 S9        29.91F
6HR MIN TEMP:  68; 6HR MAX TEMP:  72;

TOMAHAWK       NOT AVBL
MEDFORD        CLOUDY    69  46  44 SW12      29.94F
6HR MIN TEMP:  67; 6HR MAX TEMP:  71;

MERRILL        SUNNY     69  47  45 SW9       29.95F
6HR MIN TEMP:  68; 6HR MAX TEMP:  73;

$$

WIZ029-030-035-036-043>047-280100-
CENTRAL WISCONSIN

CITY           SKY/WX    TMP DP  RH WIND       PRES   REMARKS
WAUSAU           N/A    N/A N/A N/A MISG      29.93F
MOSINEE        PTSUNNY   68  48  49 S9        29.96F
MARSHFIELD     CLOUDY    70  46  42 SW10      29.94F
6HR MIN TEMP:  68; 6HR MAX TEMP:  73;

STEVENS POINT  SUNNY     69  45  42 SW8       29.96F
6HR MIN TEMP:  69; 6HR MAX TEMP:  73;

WAUPACA        SUNNY     74  45  35 S7        29.96F
6HR MIN TEMP:  73; 6HR MAX TEMP:  78;

WAUTOMA        SUNNY     72  48  42 SW7       29.97F
6HR MIN TEMP:  72; 6HR MAX TEMP:  75;

WISC RAPIDS    SUNNY     72  48  42 SW9       29.97F
6HR MIN TEMP:  71; 6HR MAX TEMP:  76;

CAMP DOUGLAS   PTSUNNY   72  48  43 S9        29.96F
$$

WIZ011>013-019>022-031-037>040-048>050-280100-
NORTHEAST WISCONSIN

CITY           SKY/WX    TMP DP  RH WIND       PRES   REMARKS
ANTIGO         MOSUNNY   68  49  51 SW9       29.96F
6HR MIN TEMP:  67; 6HR MAX TEMP:  71;

SHAWANO        MOSUNNY   75  45  33 SW6       29.95S
OCONTO         MOSUNNY   73  48  40 SW7       29.94S
6HR MIN TEMP:  69; 6HR MAX TEMP:  75;

STURGEON BAY     N/A     70  55  59 SE7       29.96S
6HR MIN TEMP:  69; 6HR MAX TEMP:  73;

GREEN BAY      SUNNY     73  50  44 SW10      29.96F
6HR MIN TEMP:  72; 6HR MAX TEMP:  76;

MANITOWOC      SUNNY     73  46  38 W8        29.98S
6HR MIN TEMP:  71; 6HR MAX TEMP:  74;

APPLETON       MOSUNNY   72  43  35 SW12      29.96F
CLINTONVILLE   MOSUNNY   72  43  35 SW9       29.95F
OSHKOSH        SUNNY     72  47  40 SW9       29.97F
6HR MIN TEMP:  70; 6HR MAX TEMP:  74;

$$

WIZ032>034-041-042-053>061-280100-
SOUTHWEST WISCONSIN

CITY           SKY/WX    TMP DP  RH WIND       PRES   REMARKS
LA CROSSE      MOSUNNY   78  47  33 S12       29.92F
6HR MIN TEMP:  77; 6HR MAX TEMP:  81;

SPARTA         SUNNY     72  47  41 S8        29.95F
6HR MIN TEMP:  72; 6HR MAX TEMP:  74;

VIROQUA        MOSUNNY   71  47  43 S12       29.97F
6HR MIN TEMP:  69; 6HR MAX TEMP:  73;

BOSCOBEL       PTSUNNY   75  47  36 S7        29.97F
6HR MIN TEMP:  74; 6HR MAX TEMP:  77;

PRAIRIE DU CHI SUNNY     73  43  33 SE6       29.96F
6HR MIN TEMP:  73; 6HR MAX TEMP:  75;

PLATTEVILLE    SUNNY     73  46  37 S14       30.00F
6HR MIN TEMP:  70; 6HR MAX TEMP:  75;

$$

WIZ056-057-062-063-064-067-068-280100-
SOUTH CENTRAL WISCONSIN

CITY           SKY/WX    TMP DP  RH WIND       PRES   REMARKS
REEDSBURG      SUNNY     71  48  44 SW8       29.97F
BARABOO/DELLS  SUNNY     71  44  38 SW9       29.97F
6HR MIN TEMP:  69; 6HR MAX TEMP:  75;

LONE ROCK      MOSUNNY   73  46  38 SW8       29.97F
6HR MIN TEMP:  72; 6HR MAX TEMP:  76;

MINERAL POINT  MOSUNNY   72  46  40 S7        30.00F
MADISON        PTSUNNY   73  46  38 SW7       29.98F
6HR MIN TEMP:  71; 6HR MAX TEMP:  75;

MIDDLETON      SUNNY     73  45  36 S8        30.00F
6HR MIN TEMP:  71; 6HR MAX TEMP:  76;

WATERTOWN      NOT AVBL
MONROE         SUNNY     70  43  37 S9        30.00F
JANESVILLE     MOSUNNY   73  43  33 SW7       30.00F
$$

WIZ051-052-058>065-066-070>072-280100-
SOUTHEAST WISCONSIN

CITY           SKY/WX    TMP DP  RH WIND       PRES   REMARKS
MILWAUKEE      PTSUNNY   74  46  36 SW8       30.00F
6HR MIN TEMP:  72; 6HR MAX TEMP:  77;

WAUKESHA       SUNNY     70  46  43 SW6       30.02F
MILWAUKEE/TIMM MOSUNNY   73  39  29 W9        30.01F
RACINE         SUNNY     68  49  50 S13       30.03F
6HR MIN TEMP:  67; 6HR MAX TEMP:  76;

KENOSHA        SUNNY     71  50  47 SE8       30.02S
6HR MIN TEMP:  70; 6HR MAX TEMP:  75;

FOND DU LAC    MOSUNNY   73  44  35 SW12      29.98F
6HR MIN TEMP:  71; 6HR MAX TEMP:  75;

SHEBOYGAN      SUNNY     72  49  44 W9        29.99S
6HR MIN TEMP:  71; 6HR MAX TEMP:  75;

WEST BEND      SUNNY     70  43  37 SW6       30.00F
JUNEAU         SUNNY     71  47  43 S9        30.01F
6HR MIN TEMP:  69; 6HR MAX TEMP:  73;

$$

LSZ147-162-280100-
LAKE SUPERIOR

STATION/POSITION TIME  TEMP    WIND        PRES    WAVE
                       AIR SEA DIR/SP/G            HT/PER
                 (UTC) (F)     (DEG/KT/KT) (MB)    (FT/S)
W MID LAKE BUOY  2350   49 39  190/  8/  8 1011.3F   1
DEVILS ISLAND    0000   66     120/  3/  4 1010.6F
SAXON HARBOR     2340   75     220/  6/ 13 1010.8F
$$

LMZ867-665-643>646-280100-
LAKE MICHIGAN

STATION/POSITION TIME  TEMP    WIND        PRES    WAVE
                       AIR SEA DIR/SP/G            HT/PER
                 (UTC) (F)     (DEG/KT/KT) (MB)    (FT/S)
CHAMBERS ISLAND  2340   68     130/  6/ 12 1013.5S
S GREEN BAY BUOY 0000   70     220/ 10/ 12 1013.7
N MID LAKE BUOY  2350   58 55  190/ 10/ 12 1015.6R   1/ 3
NORTHPORT PIER   2340   65     160/ 10/ 14 1014.2F
KEWAUNEE LAKESHO 2354   56     170/ 10/ 12 1014.2F
SHEBOYGAN LAKESH 0000   62     180/ 18/ 19 1015.2F
PORT WASHINGTON  2330   61     180/ 14/ 16 1016.9S
ATWATER BUOY     2309   62 57  150/ 12/ 16 1016.1F
MILWAUKEE LAKESH 2350   73     240/  9/ 11   N/A
S MID LAKE BUOY  2350   63 62  170/ 10/ 12 1016.9F   1/ 2
KENOSHA   LAKESH 0000   64     170/ 14/ 16 1015.9
$$

TC  - TEMPERATURE IN CELSIUS
VSB - VISIBILITY IN STATUTE MILES
WCI - WIND CHILL INDEX
HX  - HEAT INDEX


USA.gov is the U.S. government's official web portal to all federal, state and local government web resources and services.